Pamplona, Spain

6:46 AM CET on February 11, 2016 (GMT +0100)
Pamplona

Weather History for LEPP - May, 2013

Change the Weather History Date:

Saturday, May 25, 2013

  Actual Average Record
Temperature  
Mean Temperature 50 °F -  
Max Temperature 57 °F 74 °F 87 °F (2011)
Min Temperature 44 °F 53 °F 42 °F (2006)
Degree Days  
Heating Degree Days 14    
Moisture  
Dew Point 41 °F    
Average Humidity 73    
Maximum Humidity 93    
Minimum Humidity 51    
Precipitation  
Precipitation 0.00 in - - ()
Sea Level Pressure  
Sea Level Pressure 30.14 in    
Wind  
Wind Speed 10 mph ()    
Max Wind Speed 17 mph    
Max Gust Speed 26 mph    
Visibility 5.9 miles    
Events Rain    
Averages and records for this station are not official NWS values.
T = Trace of Precipitation, MM = Missing Value Source: Averaged Metar Reports

Daily Weather History Graph

Daily Weather History Graph

Search for Another Location

Airport or City:

Trip Planner

Search our weather history database for the weather conditions in past years. The results will help you decide how hot, cold, wet, or windy it might be!

Date:

Astronomy

May. 25, 2013 Rise Set
Actual Time 6:35 AM CEST 9:32 PM CEST
Civil Twilight 6:01 AM CEST 10:05 PM CEST
Nautical Twilight 5:18 AM CEST 10:48 PM CEST
Astronomical Twilight 4:28 AM CEST 11:39 PM CEST
Moon 10:04 PM CEST (5/25) 6:48 AM CEST (5/25)
Length of Visible Light 16h 04m
Length of Day
14h 57m
Full, 100% of the Moon is Illuminated
May 25
Full
May 31
Last Quarter
Jun 8
New
Jun 16
First Quarter
Jun 23
Full

Hourly Weather History & Observations

Time (CEST) Temp. Windchill Dew Point Humidity Pressure Visibility Wind Dir Wind Speed Gust Speed Precip Events Conditions
12:00 AM 48.2 °F - 39.2 °F 71% 30.12 in 6.2 mi NNW 8.1 mph - N/A   Partly Cloudy
5:30 AM 44.6 °F 39.2 °F 41.0 °F 87% 30.09 in 6.2 mi NNW 10.4 mph - N/A   Scattered Clouds
6:00 AM 44.6 °F 39.2 °F 41.0 °F 87% 30.09 in 6.2 mi NNW 10.4 mph - N/A   Scattered Clouds
6:30 AM 46.4 °F 41.5 °F 41.0 °F 81% 30.09 in 6.2 mi NNW 10.4 mph - N/A   Scattered Clouds
7:00 AM 44.6 °F 39.2 °F 42.8 °F 93% 30.09 in 5.6 mi NNW 10.4 mph - N/A   Mostly Cloudy
7:30 AM 44.6 °F 39.2 °F 42.8 °F 93% 30.09 in 5.6 mi NNW 10.4 mph - N/A   Mostly Cloudy
8:00 AM 44.6 °F 39.7 °F 42.8 °F 93% 30.09 in 4.3 mi NW 9.2 mph - N/A   Mostly Cloudy
8:30 AM 44.6 °F 40.2 °F 42.8 °F 93% 30.12 in 2.5 mi NW 8.1 mph - N/A Rain Light Rain
9:00 AM 46.4 °F 42.9 °F 42.8 °F 87% 30.12 in 4.3 mi NW 6.9 mph - N/A Rain Rain
9:30 AM 46.4 °F 41.9 °F 44.6 °F 93% 30.12 in 6.2 mi NNW 9.2 mph - N/A Rain Light Rain
10:00 AM 50.0 °F - 42.8 °F 76% 30.12 in 6.2 mi NW 12.7 mph 24.2 mph N/A   Scattered Clouds
10:30 AM 50.0 °F - 42.8 °F 76% 30.12 in 6.2 mi NW 12.7 mph - N/A   Mostly Cloudy
11:00 AM 48.2 °F - 42.8 °F 82% 30.15 in 6.2 mi NW 10.4 mph - N/A   Scattered Clouds
11:30 AM 50.0 °F - 42.8 °F 76% 30.15 in 6.2 mi NNW 15.0 mph - N/A   Scattered Clouds
12:00 PM 50.0 °F - 44.6 °F 82% 30.15 in 6.2 mi NNW 16.1 mph - N/A Rain Light Rain
12:30 PM 48.2 °F - 44.6 °F 87% 30.15 in 3.7 mi NNW 17.3 mph - N/A Rain Light Rain
1:00 PM 50.0 °F - 42.8 °F 76% 30.15 in 6.2 mi North 15.0 mph - N/A   Mostly Cloudy
1:30 PM 50.0 °F - 41.0 °F 71% 30.15 in 6.2 mi North 12.7 mph - N/A   Mostly Cloudy
2:00 PM 51.8 °F - 41.0 °F 67% 30.15 in 6.2 mi North 11.5 mph - N/A   Mostly Cloudy
2:30 PM 53.6 °F - 41.0 °F 62% 30.15 in 6.2 mi NNW 12.7 mph - N/A   Mostly Cloudy
3:00 PM 55.4 °F - 39.2 °F 54% 30.15 in 6.2 mi NW 15.0 mph 26.5 mph N/A   Scattered Clouds
3:30 PM 55.4 °F - 39.2 °F 54% 30.15 in 6.2 mi NW 17.3 mph - N/A   Scattered Clouds
4:00 PM 57.2 °F - 41.0 °F 55% 30.15 in 6.2 mi WNW 15.0 mph - N/A   Scattered Clouds
4:30 PM 55.4 °F - 41.0 °F 58% 30.15 in 6.2 mi NW 16.1 mph - N/A   Scattered Clouds
5:00 PM 55.4 °F - 37.4 °F 51% 30.15 in 6.2 mi NNW 15.0 mph - N/A   Scattered Clouds
5:30 PM 53.6 °F - 37.4 °F 54% 30.15 in 6.2 mi North 16.1 mph - N/A   Scattered Clouds
6:00 PM 53.6 °F - 39.2 °F 58% 30.15 in 6.2 mi North 15.0 mph - N/A   Scattered Clouds
6:30 PM 53.6 °F - 39.2 °F 58% 30.15 in 6.2 mi North 17.3 mph - N/A   Scattered Clouds
7:00 PM 53.6 °F - 39.2 °F 58% 30.15 in 6.2 mi NNW 17.3 mph - N/A   Partly Cloudy
7:30 PM 53.6 °F - 39.2 °F 58% 30.15 in 6.2 mi NNW 15.0 mph - N/A   Partly Cloudy
8:00 PM 51.8 °F - 39.2 °F 62% 30.15 in 6.2 mi NNW 15.0 mph - N/A   Partly Cloudy
8:30 PM 50.0 °F - 39.2 °F 66% 30.15 in 6.2 mi North 12.7 mph - N/A   Partly Cloudy
9:00 PM 50.0 °F - 39.2 °F 66% 30.15 in 6.2 mi North 11.5 mph - N/A   Partly Cloudy
9:30 PM 48.2 °F - 39.2 °F 71% 30.15 in 6.2 mi North 11.5 mph - N/A   Partly Cloudy
10:00 PM 46.4 °F 42.4 °F 39.2 °F 76% 30.18 in 6.2 mi North 8.1 mph - N/A   Partly Cloudy
10:30 PM 46.4 °F 42.9 °F 39.2 °F 76% 30.18 in - North 6.9 mph - N/A   Clear
11:00 PM 46.4 °F 41.9 °F 39.2 °F 76% 30.18 in - North 9.2 mph - N/A   Clear
11:30 PM 44.6 °F - 39.2 °F 81% 30.18 in - NW 2.3 mph - N/A   Clear